AF7DW Weather Reports


Display with metric or nautical units.
time (UTC)temp
F
wind
direction
speed
MPH
gust
MPH
rain 1hr
in
rain 24hr
in
rain mn
in
humidity
%
barometer
mb
20260906235538 78 0 0.0 1.0 0.00 0.00 0.00 32 1013.5
20260906235039 78 0 0.0 0.0 0.00 0.00 0.00 35 1013.6
20260906234551 78 0 0.0 2.0 0.00 0.00 0.00 35 1013.7
20260906234037 78 0 0.0 2.0 0.00 0.00 0.00 33 1013.8
20260906233537 78 0 0.0 2.0 0.00 0.00 0.00 34 1013.8
20260906233058 78 0 0.0 2.0 0.00 0.00 0.00 33 1013.8
20260906232541 78 0 0.0 0.0 0.00 0.00 0.00 34 1013.8
20260906232038 78 0 0.0 0.0 0.00 0.00 0.00 34 1013.9
20260906231556 78 0 0.0 0.0 0.00 0.00 0.00 33 1014.0
20260906231038 78 0 0.0 0.0 0.00 0.00 0.00 33 1014.0
20260906230539 78 0 0.0 0.0 0.00 0.00 0.00 31 1014.1
20260906230057 78 0 0.0 0.0 0.00 0.00 0.00 33 1014.1
20260906225539 78 0 0.0 5.0 0.00 0.00 0.00 33 1014.1
20260906225037 79 0 0.0 5.0 0.00 0.00 0.00 32 1014.3
20260906224550 79 182 0.0 5.0 0.00 0.00 0.00 32 1014.3
20260906224037 79 0 0.0 9.0 0.00 0.00 0.00 32 1014.3
20260906223541 79 0 0.0 9.0 0.00 0.00 0.00 31 1014.3
20260906223101 79 0 0.0 2.0 0.00 0.00 0.00 32 1014.5
20260906222542 79 0 0.0 2.0 0.00 0.00 0.00 33 1014.6
20260906222039 79 169 0.0 2.0 0.00 0.00 0.00 31 1014.6
20260906221558 79 0 0.0 2.0 0.00 0.00 0.00 33 1014.7
20260906221038 79 0 0.0 7.0 0.00 0.00 0.00 32 1014.8
20260906220541 79 0 0.0 7.0 0.00 0.00 0.00 32 1014.7
20260906220106 80 0 0.0 7.0 0.00 0.00 0.00 31 1014.9
20260906215537 80 0 0.0 5.0 0.00 0.00 0.00 30 1014.8
20260906215041 80 0 0.0 6.0 0.00 0.00 0.00 32 1014.8
20260906214602 80 0 0.0 6.0 0.00 0.00 0.00 31 1014.7
20260906214039 80 0 0.0 6.0 0.00 0.00 0.00 30 1014.8
20260906213539 80 0 0.0 5.0 0.00 0.00 0.00 30 1014.7
20260906213106 80 0 0.0 5.0 0.00 0.00 0.00 31 1014.8
20260906212538 80 0 0.0 6.0 0.00 0.00 0.00 30 1014.8
20260906212037 81 0 0.0 6.0 0.00 0.00 0.00 29 1015.0
20260906211556 81 0 0.0 5.0 0.00 0.00 0.00 30 1014.9
20260906211038 81 0 0.0 5.0 0.00 0.00 0.00 29 1015.1
20260906210538 81 0 0.0 7.0 0.00 0.00 0.00 29 1014.8
20260906210056 81 0 0.0 7.0 0.00 0.00 0.00 28 1014.9
20260906205540 81 0 0.0 9.0 0.00 0.00 0.00 28 1015.0
20260906205038 81 182 0.0 9.0 0.00 0.00 0.00 28 1015.2
20260906204550 81 308 0.0 7.0 0.00 0.00 0.00 28 1015.1
20260906204041 82 0 0.0 5.0 0.00 0.00 0.00 28 1015.2
20260906203537 82 0 0.0 4.0 0.00 0.00 0.00 30 1015.2
20260906203050 82 0 0.0 6.0 0.00 0.00 0.00 30 1015.2
20260906202538 82 279 0.0 9.0 0.00 0.00 0.00 27 1015.3
20260906202038 82 0 0.0 9.0 0.00 0.00 0.00 27 1015.5
20260906201559 82 0 0.0 5.0 0.00 0.00 0.00 27 1015.4
20260906201038 82 0 0.0 10.0 0.00 0.00 0.00 26 1015.5
20260906200538 82 0 0.0 10.0 0.00 0.00 0.00 28 1015.5
20260906200055 81 0 1.0 10.0 0.00 0.00 0.00 27 1015.6
20260906195538 81 0 0.0 6.0 0.00 0.00 0.00 28 1015.8
20260906195037 81 0 0.0 6.0 0.00 0.00 0.00 28 1015.8
20260906194551 81 0 0.0 3.0 0.00 0.00 0.00 31 1015.9
20260906194038 81 257 0.0 3.0 0.00 0.00 0.00 28 1016.0
20260906193537 80 0 0.0 3.0 0.00 0.00 0.00 30 1016.1
20260906193058 80 0 0.0 3.0 0.00 0.00 0.00 27 1016.1
20260906192540 80 0 0.0 6.0 0.00 0.00 0.00 27 1016.1
20260906192039 80 0 0.0 6.0 0.00 0.00 0.00 27 1016.0
20260906191611 80 178 0.0 6.0 0.00 0.00 0.00 27 1015.9
20260906191039 80 0 0.0 6.0 0.00 0.00 0.00 28 1016.1
20260906190542 80 0 1.0 8.0 0.00 0.00 0.00 27 1016.5
20260906190058 80 0 0.0 8.0 0.00 0.00 0.00 27 1016.5
20260906185538 81 0 0.0 6.0 0.00 0.00 0.00 26 1016.4
20260906185038 81 0 0.0 1.0 0.00 0.00 0.00 29 1016.5
20260906184559 80 0 0.0 2.0 0.00 0.00 0.00 26 1016.6
20260906184038 80 0 0.0 3.0 0.00 0.00 0.00 26 1016.5
20260906183542 80 0 0.0 3.0 0.00 0.00 0.00 26 1016.6
20260906183048 80 0 0.0 2.0 0.00 0.00 0.00 25 1016.6
20260906182541 80 0 0.0 8.0 0.00 0.00 0.00 28 1016.7
20260906182046 80 0 0.0 8.0 0.00 0.00 0.00 28 1016.8
20260906181557 80 183 0.0 3.0 0.00 0.00 0.00 26 1016.9
20260906181041 79 133 0.0 4.0 0.00 0.00 0.00 27 1016.9
20260906180542 79 0 0.0 4.0 0.00 0.00 0.00 27 1017.1
20260906180111 79 0 0.0 4.0 0.00 0.00 0.00 26 1017.2
20260906175545 79 0 0.0 3.0 0.00 0.00 0.00 26 1017.4
20260906175040 79 192 0.0 3.0 0.00 0.00 0.00 26 1017.5
20260906174553 79 0 0.0 7.0 0.00 0.00 0.00 27 1017.5
20260906174041 79 0 0.0 7.0 0.00 0.00 0.00 26 1017.5
20260906173546 79 0 0.0 7.0 0.00 0.00 0.00 26 1017.6
20260906173054 79 0 1.0 7.0 0.00 0.00 0.00 26 1017.7
20260906172543 79 0 0.0 7.0 0.00 0.00 0.00 28 1017.7
20260906172038 78 0 0.0 5.0 0.00 0.00 0.00 28 1017.8
20260906171602 78 0 0.0 5.0 0.00 0.00 0.00 26 1017.8
20260906171038 78 0 0.0 4.0 0.00 0.00 0.00 26 1017.8
20260906170541 78 0 0.0 3.0 0.00 0.00 0.00 29 1017.9
20260906170058 78 0 0.0 3.0 0.00 0.00 0.00 30 1017.9
20260906165540 79 0 0.0 3.0 0.00 0.00 0.00 31 1017.9
20260906165044 79 0 0.0 3.0 0.00 0.00 0.00 31 1017.8
20260906164554 78 0 0.0 0.0 0.00 0.00 0.00 30 1017.9
20260906164041 78 0 0.0 2.0 0.00 0.00 0.00 30 1018.0
20260906163541 78 0 0.0 2.0 0.00 0.00 0.00 30 1018.0
20260906163108 78 0 0.0 1.0 0.00 0.00 0.00 30 1018.0
20260906162541 78 0 0.0 0.0 0.00 0.00 0.00 30 1018.1
20260906162037 78 0 0.0 0.0 0.00 0.00 0.00 30 1018.1
20260906161555 78 0 0.0 1.0 0.00 0.00 0.00 30 1018.1
20260906161041 77 0 0.0 1.0 0.00 0.00 0.00 30 1018.2
20260906160538 76 0 0.0 1.0 0.00 0.00 0.00 31 1018.3
20260906160056 76 0 0.0 0.0 0.00 0.00 0.00 31 1018.4
20260906155541 76 0 0.0 0.0 0.00 0.00 0.00 32 1018.4
20260906155038 75 0 0.0 0.0 0.00 0.00 0.00 32 1018.4
20260906154603 75 0 0.0 0.0 0.00 0.00 0.00 32 1018.5
20260906154042 75 0 0.0 0.0 0.00 0.00 0.00 32 1018.4
20260906153540 74 0 0.0 2.0 0.00 0.00 0.00 34 1018.4
20260906153059 74 0 0.0 2.0 0.00 0.00 0.00 34 1018.4
20260906152542 74 0 0.0 2.0 0.00 0.00 0.00 34 1018.4
20260906152038 74 0 0.0 2.0 0.00 0.00 0.00 33 1018.4
20260906151557 74 0 0.0 1.0 0.00 0.00 0.00 31 1018.4
20260906151040 73 0 0.0 1.0 0.00 0.00 0.00 32 1018.3
20260906150539 73 0 0.0 0.0 0.00 0.00 0.00 32 1018.2
20260906150056 72 0 0.0 0.0 0.00 0.00 0.00 36 1018.2
20260906145542 71 0 0.0 0.0 0.00 0.00 0.00 34 1018.3
20260906145038 70 0 0.0 0.0 0.00 0.00 0.00 35 1018.1
20260906144600 70 0 0.0 0.0 0.00 0.00 0.00 36 1018.1
20260906144040 69 0 0.0 0.0 0.00 0.00 0.00 37 1018.1
20260906143544 68 0 0.0 0.0 0.00 0.00 0.00 37 1018.1
20260906143058 68 0 0.0 2.0 0.00 0.00 0.00 37 1018.0
20260906142543 68 0 0.0 2.0 0.00 0.00 0.00 38 1018.0
20260906142042 68 0 0.0 0.0 0.00 0.00 0.00 38 1018.0
20260906141556 68 0 0.0 0.0 0.00 0.00 0.00 37 1017.9
20260906141038 68 0 0.0 0.0 0.00 0.00 0.00 35 1017.9
20260906140539 68 0 0.0 0.0 0.00 0.00 0.00 36 1017.9
20260906140103 68 0 0.0 0.0 0.00 0.00 0.00 36 1017.9
20260906135541 68 0 0.0 0.0 0.00 0.00 0.00 34 1017.9
20260906135040 68 0 0.0 0.0 0.00 0.00 0.00 35 1017.8
20260906134550 68 0 0.0 0.0 0.00 0.00 0.00 34 1017.8
20260906134042 68 0 0.0 0.0 0.00 0.00 0.00 35 1017.7
20260906133542 68 0 0.0 2.0 0.00 0.00 0.00 33 1017.6
20260906133124 68 0 0.0 2.0 0.00 0.00 0.00 33 1017.6
20260906132542 68 0 0.0 2.0 0.00 0.00 0.00 34 1017.4
20260906132038 68 0 0.0 0.0 0.00 0.00 0.00 33 1017.4
20260906131614 68 0 0.0 0.0 0.00 0.00 0.00 33 1017.3
20260906131038 68 0 0.0 0.0 0.00 0.00 0.00 33 1017.4
20260906130541 68 0 0.0 0.0 0.00 0.00 0.00 33 1017.2
20260906130103 69 0 0.0 0.0 0.00 0.00 0.00 32 1017.3
20260906125538 69 0 0.0 1.0 0.00 0.00 0.00 32 1017.2
20260906125043 69 0 0.0 1.0 0.00 0.00 0.00 31 1017.3
20260906124600 69 0 0.0 1.0 0.00 0.00 0.00 31 1017.3
20260906124041 69 0 0.0 1.0 0.00 0.00 0.00 31 1017.3
20260906123542 69 0 0.0 0.0 0.00 0.00 0.00 31 1017.3
20260906123057 69 0 0.0 0.0 0.00 0.00 0.00 31 1017.3
20260906122541 69 0 0.0 0.0 0.00 0.00 0.00 30 1017.1
20260906122042 69 0 0.0 0.0 0.00 0.00 0.00 29 1017.2
20260906121555 70 0 0.0 0.0 0.00 0.00 0.00 30 1017.2
20260906121041 70 0 0.0 0.0 0.00 0.00 0.00 29 1017.1
20260906120538 70 0 0.0 0.0 0.00 0.00 0.00 29 1017.3
20260906120059 70 0 0.0 0.0 0.00 0.00 0.00 29 1017.3
20260906115541 70 0 0.0 0.0 0.00 0.00 0.00 28 1017.3
20260906115037 70 0 0.0 2.0 0.00 0.00 0.00 28 1017.2
20260906114552 70 0 0.0 2.0 0.00 0.00 0.00 28 1017.3
20260906114038 70 0 0.0 2.0 0.00 0.00 0.00 28 1017.2
20260906113538 70 0 0.0 1.0 0.00 0.00 0.00 28 1017.2
20260906113057 70 0 0.0 1.0 0.00 0.00 0.00 29 1017.2
20260906112541 70 0 0.0 1.0 0.00 0.00 0.00 27 1017.1
20260906112042 70 0 0.0 1.0 0.00 0.00 0.00 26 1017.1
20260906111555 70 0 0.0 1.0 0.00 0.00 0.00 27 1017.2
20260906111041 70 0 0.0 1.0 0.00 0.00 0.00 27 1017.1
20260906110538 70 0 0.0 3.0 0.00 0.00 0.00 27 1017.1
20260906110052 70 0 0.0 3.0 0.00 0.00 0.00 26 1017.2
20260906105541 70 0 0.0 0.0 0.00 0.00 0.00 27 1017.1
20260906105040 70 0 0.0 0.0 0.00 0.00 0.00 27 1017.1
20260906104558 70 0 0.0 1.0 0.00 0.00 0.00 27 1017.1
20260906104038 70 0 0.0 1.0 0.00 0.00 0.00 26 1017.1
20260906103542 70 0 0.0 1.0 0.00 0.00 0.00 26 1017.1
20260906103058 70 0 0.0 0.0 0.00 0.00 0.00 27 1017.1
20260906102542 70 0 0.0 0.0 0.00 0.00 0.00 27 1017.2
20260906102041 70 0 0.0 1.0 0.00 0.00 0.00 24 1017.1
20260906101558 70 0 0.0 1.0 0.00 0.00 0.00 25 1017.0
20260906101041 70 0 0.0 1.0 0.00 0.00 0.00 25 1017.0
20260906100538 70 0 0.0 1.0 0.00 0.00 0.00 25 1016.9
20260906100051 71 0 0.0 0.0 0.00 0.00 0.00 25 1017.0
20260906095542 71 0 0.0 1.0 0.00 0.00 0.00 25 1016.9
20260906095038 71 0 0.0 1.0 0.00 0.00 0.00 25 1016.8
20260906094604 71 0 0.0 0.0 0.00 0.00 0.00 26 1016.8
20260906094040 71 0 0.0 0.0 0.00 0.00 0.00 24 1016.7
20260906093542 72 0 0.0 0.0 0.00 0.00 0.00 25 1016.8
20260906093059 72 0 0.0 0.0 0.00 0.00 0.00 25 1016.8
20260906092542 72 0 0.0 1.0 0.00 0.00 0.00 25 1016.8
20260906092043 73 0 0.0 1.0 0.00 0.00 0.00 24 1016.8
20260906091557 73 0 0.0 1.0 0.00 0.00 0.00 25 1016.8
20260906091044 73 0 0.0 3.0 0.00 0.00 0.00 24 1016.8
20260906090543 73 0 0.0 6.0 0.00 0.00 0.00 24 1016.8
20260906090055 73 0 0.0 8.0 0.00 0.00 0.00 24 1016.7
20260906085541 72 0 0.0 8.0 0.00 0.00 0.00 26 1016.7
20260906085042 72 0 0.0 0.0 0.00 0.00 0.00 26 1016.5
20260906084559 72 0 0.0 0.0 0.00 0.00 0.00 25 1016.5
20260906084040 72 0 0.0 0.0 0.00 0.00 0.00 24 1016.5
20260906083542 72 0 0.0 0.0 0.00 0.00 0.00 24 1016.5
20260906083056 72 0 0.0 0.0 0.00 0.00 0.00 23 1016.5
20260906082541 72 0 0.0 0.0 0.00 0.00 0.00 23 1016.5
20260906082041 73 0 0.0 0.0 0.00 0.00 0.00 24 1016.5
20260906081557 73 0 0.0 0.0 0.00 0.00 0.00 24 1016.5
20260906081041 73 0 0.0 0.0 0.00 0.00 0.00 25 1016.7
20260906080540 73 0 0.0 1.0 0.00 0.00 0.00 23 1016.7
20260906080058 73 0 0.0 1.0 0.00 0.00 0.00 24 1016.6
20260906075538 73 0 0.0 2.0 0.00 0.00 0.00 22 1016.6
20260906075038 73 0 0.0 2.0 0.00 0.00 0.00 22 1016.7
20260906074600 73 0 0.0 0.0 0.00 0.00 0.00 22 1016.7
20260906074041 73 0 0.0 0.0 0.00 0.00 0.00 23 1016.6
20260906073542 73 0 0.0 3.0 0.00 0.00 0.00 22 1016.7
20260906073057 73 0 0.0 4.0 0.00 0.00 0.00 22 1016.7
20260906072542 73 0 0.0 4.0 0.00 0.00 0.00 22 1016.7
20260906072042 73 0 0.0 3.0 0.00 0.00 0.00 22 1016.7
20260906071555 73 0 0.0 2.0 0.00 0.00 0.00 22 1016.7
20260906071041 73 0 0.0 2.0 0.00 0.00 0.00 22 1016.7
20260906070541 73 0 0.0 4.0 0.00 0.00 0.00 22 1016.7
20260906070054 72 175 0.0 4.0 0.00 0.00 0.00 22 1016.7
20260906065541 72 0 0.0 1.0 0.00 0.00 0.00 23 1016.7
20260906065042 72 0 0.0 1.0 0.00 0.00 0.00 22 1016.7
20260906064559 72 0 0.0 2.0 0.00 0.00 0.00 22 1016.8
20260906064040 72 0 0.0 2.0 0.00 0.00 0.00 22 1016.7
20260906063541 72 0 0.0 1.0 0.00 0.00 0.00 23 1016.7
20260906063057 72 0 0.0 0.0 0.00 0.00 0.00 22 1016.6
20260906062541 72 0 0.0 0.0 0.00 0.00 0.00 23 1016.6
20260906062044 72 0 0.0 0.0 0.00 0.00 0.00 21 1016.5
20260906061556 72 0 0.0 0.0 0.00 0.00 0.00 21 1016.5
20260906061044 72 0 0.0 0.0 0.00 0.00 0.00 22 1016.5
20260906060538 72 0 0.0 2.0 0.00 0.00 0.00 21 1016.5
20260906055540 72 0 0.0 7.0 0.00 0.00 0.00 21 1016.3
20260906055046 71 0 0.0 0.0 0.00 0.00 0.00 22 1016.3
20260906054559 71 0 0.0 0.0 0.00 0.00 0.00 22 1016.3
20260906054038 71 0 0.0 0.0 0.00 0.00 0.00 24 1016.4
20260906053542 71 0 0.0 0.0 0.00 0.00 0.00 25 1016.4
20260906053058 71 0 0.0 0.0 0.00 0.00 0.00 27 1016.3
20260906052546 72 0 0.0 0.0 0.00 0.00 0.00 25 1016.4
20260906052042 72 0 0.0 0.0 0.00 0.00 0.00 26 1016.3
20260906051558 72 0 0.0 0.0 0.00 0.00 0.00 24 1016.3
20260906051041 72 0 0.0 0.0 0.00 0.00 0.00 24 1016.3
20260906050541 72 0 0.0 0.0 0.00 0.00 0.00 24 1016.3
20260906050056 72 0 0.0 0.0 0.00 0.00 0.00 24 1016.3
20260906045542 72 0 0.0 0.0 0.00 0.00 0.00 24 1016.3
20260906045041 72 0 0.0 0.0 0.00 0.00 0.00 24 1016.3
20260906044559 72 0 0.0 1.0 0.00 0.00 0.00 24 1016.2
20260906044042 72 0 0.0 4.0 0.00 0.00 0.00 23 1016.3
20260906043541 72 0 0.0 4.0 0.00 0.00 0.00 24 1016.1
20260906043056 72 0 0.0 4.0 0.00 0.00 0.00 23 1016.1
20260906042542 72 0 0.0 3.0 0.00 0.00 0.00 24 1016.1
20260906042041 73 0 0.0 3.0 0.00 0.00 0.00 24 1016.1
20260906041554 73 0 0.0 3.0 0.00 0.00 0.00 24 1016.1
20260906041043 73 12 0.0 2.0 0.00 0.00 0.00 24 1016.1
20260906040542 73 21 0.0 2.0 0.00 0.00 0.00 23 1016.1
20260906040104 73 0 0.0 2.0 0.00 0.00 0.00 24 1016.1
20260906035539 73 0 0.0 1.0 0.00 0.00 0.00 23 1016.0
20260906035038 73 0 0.0 2.0 0.00 0.00 0.00 24 1016.0
20260906034559 73 0 0.0 2.0 0.00 0.00 0.00 24 1015.9
20260906034042 73 0 0.0 1.0 0.00 0.00 0.00 24 1015.9
20260906033546 73 0 0.0 0.0 0.00 0.00 0.00 24 1015.8
20260906033101 74 0 0.0 2.0 0.00 0.00 0.00 23 1015.8
20260906032541 74 0 0.0 2.0 0.00 0.00 0.00 23 1015.8
20260906032041 74 20 0.0 3.0 0.00 0.00 0.00 24 1015.8
20260906031557 74 0 0.0 3.0 0.00 0.00 0.00 24 1015.7
20260906031041 74 20 0.0 1.0 0.00 0.00 0.00 23 1015.7
20260906030541 75 0 0.0 1.0 0.00 0.00 0.00 22 1015.6
20260906030059 75 0 0.0 2.0 0.00 0.00 0.00 22 1015.6
20260906025540 75 0 0.0 2.0 0.00 0.00 0.00 21 1015.6
20260906025042 75 0 0.0 1.0 0.00 0.00 0.00 21 1015.5
20260906024556 75 0 0.0 4.0 0.00 0.00 0.00 21 1015.5
20260906024042 76 0 0.0 4.0 0.00 0.00 0.00 21 1015.4
20260906023542 76 0 0.0 3.0 0.00 0.00 0.00 21 1015.3
20260906023055 76 0 0.0 3.0 0.00 0.00 0.00 20 1015.0
20260906022542 77 0 0.0 3.0 0.00 0.00 0.00 21 1015.0
20260906022042 77 0 0.0 3.0 0.00 0.00 0.00 20 1015.0
20260906021600 78 0 0.0 4.0 0.00 0.00 0.00 20 1015.0
20260906021043 78 0 0.0 4.0 0.00 0.00 0.00 20 1015.0
20260906020540 78 0 0.0 3.0 0.00 0.00 0.00 20 1015.1
20260906020057 79 13 0.0 4.0 0.00 0.00 0.00 20 1015.0
20260906015539 79 0 0.0 4.0 0.00 0.00 0.00 20 1015.0
20260906015039 79 0 0.0 4.0 0.00 0.00 0.00 20 1015.1
20260906014559 80 0 0.0 2.0 0.00 0.00 0.00 20 1015.1
20260906014041 80 0 0.0 2.0 0.00 0.00 0.00 19 1015.2
20260906013539 80 0 0.0 2.0 0.00 0.00 0.00 20 1015.2
20260906013049 80 0 0.0 2.0 0.00 0.00 0.00 19 1015.3
20260906012539 81 0 0.0 0.0 0.00 0.00 0.00 19 1015.2
20260906012040 81 0 0.0 1.0 0.00 0.00 0.00 19 1015.2
20260906011613 81 0 0.0 1.0 0.00 0.00 0.00 19 1015.2
20260906011039 81 0 0.0 3.0 0.00 0.00 0.00 19 1015.2
20260906010539 81 0 0.0 3.0 0.00 0.00 0.00 17 1015.3
20260906010059 81 0 0.0 5.0 0.00 0.00 0.00 17 1015.3
20260906005539 82 0 0.0 6.0 0.00 0.00 0.00 18 1015.5
20260906005039 82 0 0.0 6.0 0.00 0.00 0.00 17 1015.5
20260906004554 82 0 0.0 8.0 0.00 0.00 0.00 17 1015.5
20260906004039 82 0 1.0 8.0 0.00 0.00 0.00 18 1015.4
20260906003539 82 0 0.0 5.0 0.00 0.00 0.00 18 1015.5
20260906003049 82 316 0.0 5.0 0.00 0.00 0.00 18 1015.4
20260906002538 82 250 0.0 3.0 0.00 0.00 0.00 20 1015.5
20260906002044 82 0 0.0 4.0 0.00 0.00 0.00 18 1015.4
20260906001602 82 0 0.0 6.0 0.00 0.00 0.00 18 1015.4
20260906001041 83 0 0.0 7.0 0.00 0.00 0.00 17 1015.5
20260906000540 83 0 1.0 7.0 0.00 0.00 0.00 18 1015.5
20260906000057 83 0 0.0 9.0 0.00 0.00 0.00 19 1015.6